Gonets-M No. 13L

operational
NORAD ID: 38734 Int'l Des: 2012-041 Owner: GONETS Country: RU
LEOCIRCULARPOLAR

Über Gonets-M No. 13L

Beschreibung wird geladen...

Live-Position

3D-Globus wird geladen...

Nächste Überflüge

Höhenverlauf

Altitude vs Time

uPlot chart will show altitude changes over time

Zweizeiliger Elementsatz

1 38734U 12041B 25278.54708894 .00000015 00000-0 33375-4 0 9993
2 38734 82.4750 224.2684 0015257 261.1478 98.7875 12.44891009598981
Epoch: 5. Okt. 2025 • Age: 9 hours

Aktueller Status

Höhe 1493.6 km
Geschwindigkeit 7.12 km/s
Subsatellitenpunkt -45.95°S, 66.14°E
Startdatum 28. Juli 2012
Alter 13.1 years
Typ other

Technische Details

Klassifizierung Payload
Masse 280.00 kg
Trockenmasse 280.00 kg
Gesamtmasse 280.00 kg
Länge 1.60 m
Durchmesser 0.80 m
Spannweite 7.00 m
Form Cyl + Ant
Hersteller RESH
Bus-Typ Strela-3
Phasenstatus In Orbit
Besitzer/Staat GONETS/RU

Große Konstellationen

Loading constellations...